千帆星座-160(QIANFAN-160)

导读

QIANFAN-160(NORAD编号69119)是中国千帆星座组网卫星中的一颗,由上海航测空间公司牵头规划,中科院上海微卫星研究院参与研制。千帆星座计划在2030年前完成约10000颗低轨卫星部署,目标为全球用户提供高速安全可靠的宽带互联网服务。QIANFAN-160运行于约1080公里高度的低轨轨道,轨道速度约7.3km/s,因轨道大气稀薄,阻力影响小,轨道预测稳定性整体优于星链卫星,24小时内轨道误差可控制在1-2公里。

基本信息
目录编号:
69119
目录名称:
QIANFAN-160
国际标识:
2026-108R
轨道中心:
EARTH
卫星名称:
千帆星座-160
卫星全名:
千帆星座-160(QIANFAN-160)
卫星状态:
在轨 (已飞行27 天)
发射日期:
2026-05-17 UTC
国别 :
中国 (CN)
星等 :
--
轨道信息
数据来源 国际轨道数据
星历时间: 2026-06-13T04:58:37+0800
4小时前
查看轨道信息
半长轴: 7218.616km
偏心率: 0.001559
轨道倾角: 89.012°
近地点辐角 125.311°
升交点赤经 22.678°
平近点角 234.954°
近地点: 829.225km
远地点: 851.733km
周期: 101.728分钟
每日圈数: 14.155392
详细信息
卫星平台:
160
覆盖范围:
全球
运营商:
上海垣信卫星科技有限公司
运营商所在国:
中国
使用方式:
暂无
卫星简介
千帆星座,也被称为“G60星链”计划,是中国版“星链”的重要组成部分,旨在打造一个由1.4万多颗低轨宽频多媒体卫星构成的庞大星座。千帆星座计划由上海垣信卫星科技有限公司负责实施,于2023年启动建设。该项目是我国第二个低轨卫星大星座,旨在通过构建庞大的卫星网络,为全球用户提供高质量的通信和宽带互联网服务。
2D轨道图
3D轨道图
轨道高度分析图
轨道倾角分析图
轨道综合分析图
查看轨道综合分析图